Location: Unspecified
(0.0000°N, 0.0000°E)
Time: 23:09:22
(UTC+00:00)

OTV 5 (USA 277) - Pass Details

Date: 17 January 2019
Orbit: 339 x 349 km, 54.5° (Epoch: 15 January)

Event Time Altitude Azimuth Distance (km) Brightness Sun altitude
Rises 19:17:16 0° 321° (NW) 2,115 ? -15.7°
Reaches altitude 10° 19:19:17 10° 316° (NW) 1,278 ? -16.1°
Maximum altitude 19:22:03 53° 238° (WSW) 422 ? -16.8°
Drops below altitude 10° 19:24:51 10° 159° (SSE) 1,280 ? -17.4°
Sets 19:26:52 0° 154° (SSE) 2,120 ? -17.9°
